Content
SEND FEEDBACK

Daily
Averages
Monthly
Summary
United States of America

RAPID CITY, SOUTH DAKOTA


Home > North America > United States > South Dakota
Elevation: 3162 feet     Latitude: 44 03N     Longitude: 103 04W

WEATHER
 
SELECT A DAY
Number of Records: 202,741;   Date Range: 1/1/95 - 9/29/14
 
SHARE

PRINT THIS DATA

[ ← Previous Day ]
WEATHER ALMANAC - FEBRUARY 21, 2013
[ Next Day → ]
[ °C ]   °F
Weather ElementAverageHighLow
Temperature20.5 °F25 °F (12:52 pm)15.1 °F (11:52 pm)
Dewpoint17.1 °F19.9 °F (12:52 pm)12 °F (11:52 pm)
Humidity87.3 %93 % (4:11 am)74 % (1:02 am)
Barometer29.97 in30.09 in (10:52 am)29.88 in (4:11 am)
Wind Speed7.5 mph13.8 mph (3:52 am)
Weather ElementAverage
Visibility3.9 mi
Wind DirectionESE (118.2 °)

Weather ElementTotal
Precipitation0.21 in
Heating Degree Days45 (Base 65)
Averaged from 60 records on February 21, 2013
WEATHER CONDITIONS BREAKOUT
WIND DIRECTION BREAKOUT
WEATHER BY HOUR - FEBRUARY 21, 2013
[ °C ]   °F
Local TimeTemperatureDewpointHumidityBarometerVisibilityWind DirectionWind SpeedGust SpeedPrecipitationEventsConditions
1:02 AM24.8 °F17.6 °F74 %29.89 in10.0 miSouth (170°)11.5 mphOvercast
1:52 AM23.0 °F18.0 °F81 %29.99 in10.0 miSSE (150°)10.4 mphOvercast
2:52 AM21.9 °F17.1 °F82 %29.99 in10.0 miSE (140°)11.5 mphOvercast
3:52 AM21.0 °F17.1 °F85 %30.01 in10.0 miSE (140°)13.8 mphOvercast
4:11 AM19.4 °F17.6 °F93 %29.88 in6.0 miSE (130°)11.5 mph0.00 inSnowLight Snow
4:22 AM19.4 °F17.6 °F93 %29.89 in5.0 miSE (130°)10.4 mph0.00 inSnowLight Snow
4:50 AM19.4 °F17.6 °F93 %29.89 in3.0 miSE (140°)13.8 mph0.00 inSnowLight Snow
4:52 AM19.9 °F17.1 °F89 %30.01 in3.0 miSE (130°)11.5 mph0.00 inSnowLight Snow
4:59 AM19.4 °F17.6 °F93 %29.89 in3.0 miSE (130°)12.7 mph0.00 inSnowLight Snow
5:16 AM19.4 °F17.6 °F93 %29.90 in2.5 miSE (140°)12.7 mph0.00 inSnowLight Snow
5:52 AM19.0 °F17.1 °F92 %30.04 in1.8 miSE (130°)11.5 mph0.01 inSnowLight Snow
6:00 AM19.4 °F17.6 °F93 %29.91 in2.5 miSE (130°)9.2 mphSnowLight Snow
6:14 AM19.4 °F17.6 °F93 %29.92 in1.8 miSE (130°)10.4 mph0.01 inSnowLight Snow
6:38 AM19.4 °F17.6 °F93 %29.92 in2.5 miSE (130°)9.2 mph0.01 inSnowLight Snow
6:52 AM19.0 °F16.0 °F88 %30.06 in1.5 miSE (130°)9.2 mph0.01 inSnowLight Snow
7:52 AM19.0 °F16.0 °F88 %30.08 in1.0 miSE (130°)4.6 mph0.02 inSnowLight Snow
8:52 AM19.9 °F17.1 °F89 %30.08 in1.0 miSE (140°)6.9 mph0.01 inSnowLight Snow
8:56 AM19.4 °F17.6 °F93 %29.95 in2.0 miSE (140°)8.1 mph0.00 inSnowLight Snow
9:19 AM19.4 °F15.8 °F86 %29.95 in3.0 miSE (140°)8.1 mph0.00 inSnowLight Snow
9:43 AM19.4 °F17.6 °F93 %29.95 in2.0 miSE (130°)5.8 mph0.00 inSnowLight Snow
9:45 AM21.2 °F17.6 °F86 %29.95 in1.8 miSE (130°)6.9 mph0.00 inSnowLight Snow
9:52 AM21.0 °F17.1 °F85 %30.08 in1.5 miSE (140°)4.6 mph0.00 inSnowLight Snow
10:35 AM21.2 °F17.6 °F86 %29.95 in2.0 miSSE (150°)5.8 mph0.01 inSnowLight Snow
10:43 AM21.2 °F17.6 °F86 %29.95 in1.2 miSE (140°)4.6 mph0.01 inSnowLight Snow
10:52 AM21.9 °F18.0 °F85 %30.09 in1.2 miSE (140°)5.8 mph0.01 inSnowLight Snow
11:29 AM21.2 °F19.4 °F93 %29.95 in2.0 miSE (130°)4.6 mph0.01 inSnowLight Snow
11:40 AM21.2 °F19.4 °F93 %29.94 in3.0 miESE (110°)4.6 mph0.01 inSnowLight Snow
11:52 AM23.0 °F19.0 °F85 %30.07 in2.5 miESE (120°)4.6 mph0.01 inSnowLight Snow
12:13 PM24.8 °F19.4 °F80 %29.94 in3.0 miESE (110°)4.6 mph0.00 inSnowLight Snow
12:41 PM24.8 °F19.4 °F80 %29.92 in3.0 miEast (100°)3.5 mph0.00 inSnowLight Snow
12:52 PM25.0 °F19.9 °F81 %30.04 in2.5 miESE (120°)5.8 mph0.00 inSnowLight Snow
12:59 PM24.8 °F19.4 °F80 %29.92 in4.0 miESE (110°)6.9 mph0.00 inSnowLight Snow
1:20 PM24.8 °F19.4 °F80 %29.91 in1.8 miEast (80°)6.9 mph0.00 inSnowLight Snow
1:45 PM24.8 °F19.4 °F80 %29.91 in3.0 miEast (80°)10.4 mph0.01 inSnowLight Snow
1:52 PM24.1 °F19.0 °F81 %30.04 in7.0 miEast (80°)10.4 mph0.01 inSnowLight Snow
2:52 PM23.0 °F19.0 °F85 %30.04 in4.0 miEast (80°)8.1 mph0.00 inSnowLight Snow
3:42 PM21.2 °F17.6 °F86 %29.92 in2.5 miEast (90°)5.8 mph0.00 inSnowLight Snow
3:52 PM21.9 °F17.1 °F82 %30.05 in2.5 miEast (80°)8.1 mph0.00 inSnowLight Snow
4:06 PM21.2 °F17.6 °F86 %29.92 in3.0 miEast (90°)6.9 mph0.00 inSnowLight Snow
4:48 PM21.2 °F17.6 °F86 %29.92 in10.0 miEast (100°)6.9 mph0.00 inOvercast
4:52 PM21.9 °F17.1 °F82 %30.06 in10.0 miEast (80°)8.1 mph0.00 inOvercast
5:52 PM21.9 °F16.0 °F78 %30.07 in9.0 miEast (90°)5.8 mph0.00 inSnowLight Snow
6:09 PM21.2 °F17.6 °F86 %29.94 in5.0 miEast (100°)4.6 mph0.00 inSnowLight Snow
6:52 PM21.0 °F17.1 °F85 %30.08 in5.0 miESE (110°)5.8 mph0.00 inSnowLight Snow
7:04 PM21.2 °F17.6 °F86 %29.94 in3.0 miESE (110°)5.8 mph0.00 inSnowLight Snow
7:17 PM19.4 °F17.6 °F93 %29.93 in2.5 miESE (110°)5.8 mph0.01 inSnowLight Snow
7:31 PM19.4 °F17.6 °F93 %29.93 in3.0 miESE (110°)6.9 mph0.01 inSnowLight Snow
7:52 PM19.9 °F17.1 °F89 %30.08 in4.0 miESE (110°)5.8 mph0.01 inSnowLight Snow
8:07 PM19.4 °F17.6 °F93 %29.93 in2.5 miESE (120°)8.1 mph0.00 inSnowLight Snow
8:30 PM19.4 °F15.8 °F86 %29.93 in3.0 miESE (110°)5.8 mph0.01 inSnowLight Snow
8:52 PM18.0 °F15.1 °F88 %30.08 in3.0 miESE (110°)5.8 mph0.01 inSnowLight Snow
9:07 PM17.6 °F15.8 °F93 %29.93 in5.0 miESE (120°)5.8 mph0.00 inSnowLight Snow
9:24 PM17.6 °F15.8 °F93 %29.93 in5.0 miESE (110°)4.6 mph0.00 inSnowLight Snow
9:31 PM17.6 °F15.8 °F93 %29.93 in4.0 miEast (100°)4.6 mph0.00 inSnowLight Snow
9:52 PM17.1 °F14.0 °F88 %30.08 in8.0 miESE (120°)5.8 mph0.00 inOvercast
10:17 PM17.6 °F14.0 °F86 %29.92 in2.5 miESE (110°)5.8 mph0.00 inSnowLight Snow
10:24 PM15.8 °F14.0 °F93 %29.92 in3.0 miESE (110°)4.6 mph0.00 inSnowLight Snow
10:52 PM16.0 °F12.9 °F88 %30.07 in7.0 miESE (110°)5.8 mph0.00 inOvercast
11:43 PM15.8 °F12.2 °F86 %29.92 in2.0 miESE (120°)8.1 mph0.00 inSnowLight Snow
11:52 PM15.1 °F12.0 °F88 %30.07 in2.0 miESE (120°)6.9 mph0.01 inSnowLight Snow
Hourly data recorded from KRAP, located miles away from Rapid City, South Dakota







STORIES FROM OUR PARTNERS